• In Belarus
  • List of Countries
  • For 7 days
  • Water Temperature
  • Satellite Maps
  • Weather Map
  • Weather Widgets
  • user-avatar
    Login

    Hourly Weather Sinyaki

    Today, 25 September, Tuesday

    Time Temperature Precipitation Wind Pressure Humidity
    00:00 +6°C° 0.1 mm 5 mps 735 mmHg 91%
    01:00 +6°C° 0.1 mm 5 mps 736 mmHg 91%
    02:00 +6°C° 0 mm 4 mps 737 mmHg 92%
    03:00 +5°C° 0 mm 5 mps 738 mmHg 92%
    04:00 +5°C° 0 mm 5 mps 738 mmHg 92%
    05:00 +3°C° 0 mm 5 mps 739 mmHg 92%
    06:00 +3°C° 0 mm 5 mps 740 mmHg 91%
    07:00 +5°C° 0 mm 5 mps 741 mmHg 90%
    08:00 +5°C° 0 mm 5 mps 741 mmHg 88%
    09:00 +5°C° 0.1 mm 5 mps 742 mmHg 86%
    10:00 +5°C° 0.1 mm 5 mps 743 mmHg 85%
    11:00 +5°C° 0.1 mm 5 mps 743 mmHg 83%
    12:00 +6°C° 0.1 mm 5 mps 744 mmHg 79%
    13:00 +7°C° 0.1 mm 5 mps 744 mmHg 74%
    14:00 +7°C° 0.1 mm 5 mps 745 mmHg 69%
    15:00 +7°C° 0.1 mm 5 mps 745 mmHg 71%
    16:00 +7°C° 0.1 mm 4 mps 746 mmHg 72%
    17:00 +6°C° 0.1 mm 4 mps 746 mmHg 73%
    18:00 +5°C° 0 mm 4 mps 747 mmHg 75%
    19:00 +4°C° 0 mm 4 mps 748 mmHg 77%
    20:00 +4°C° 0 mm 3 mps 748 mmHg 79%
    21:00 +3°C° 0 mm 3 mps 749 mmHg 79%
    22:00 +3°C° 0 mm 3 mps 750 mmHg 78%
    23:00 +2°C° 0 mm 3 mps 751 mmHg 78%

    Tomorrow, 26 September, Wednesday

    Time Temperature Precipitation Wind Pressure Humidity
    00:00 +2°C° 0 mm 3 mps 751 mmHg 79%
    01:00 +1°C° 0 mm 3 mps 751 mmHg 81%
    02:00 +1°C° 0 mm 3 mps 752 mmHg 82%
    03:00 +1°C° 0 mm 3 mps 752 mmHg 85%
    04:00 +1°C° 0 mm 3 mps 752 mmHg 88%
    05:00 +1°C° 0 mm 3 mps 753 mmHg 91%
    06:00 +2°C° 0 mm 3 mps 753 mmHg 87%
    07:00 +3°C° 0 mm 3 mps 753 mmHg 84%
    08:00 +4°C° 0 mm 3 mps 753 mmHg 80%
    09:00 +6°C° 0 mm 4 mps 753 mmHg 72%
    10:00 +7°C° 0 mm 4 mps 753 mmHg 65%
    11:00 +9°C° 0 mm 5 mps 753 mmHg 57%
    12:00 +10°C° 0 mm 5 mps 752 mmHg 57%
    13:00 +10°C° 0 mm 5 mps 751 mmHg 56%
    14:00 +11°C° 0 mm 6 mps 751 mmHg 56%
    15:00 +10°C° 0.1 mm 6 mps 750 mmHg 62%
    16:00 +9°C° 0.1 mm 6 mps 749 mmHg 68%
    17:00 +8°C° 0.1 mm 6 mps 748 mmHg 74%
    18:00 +7°C° 0.7 mm 6 mps 748 mmHg 78%
    19:00 +5°C° 0.7 mm 7 mps 747 mmHg 82%
    20:00 +5°C° 0.7 mm 7 mps 746 mmHg 87%
    21:00 +5°C° 0.9 mm 8 mps 745 mmHg 88%
    22:00 +5°C° 0.9 mm 8 mps 744 mmHg 89%
    23:00 +5°C° 0.9 mm 8 mps 742 mmHg 90%

    Day after tomorrow, 27 September, Thursday

    Time Temperature Precipitation Wind Pressure Humidity
    00:00 +5°C° 0.6 mm 8 mps 741 mmHg 90%
    01:00 +5°C° 0.6 mm 8 mps 740 mmHg 90%
    02:00 +6°C° 0.6 mm 8 mps 739 mmHg 90%
    03:00 +6°C° 0.7 mm 7 mps 739 mmHg 91%
    04:00 +6°C° 0.7 mm 7 mps 739 mmHg 92%
    05:00 +8°C° 0.7 mm 6 mps 738 mmHg 92%
    06:00 +8°C° 1 mm 5 mps 738 mmHg 92%
    07:00 +8°C° 1 mm 4 mps 739 mmHg 92%
    08:00 +10°C° 1 mm 3 mps 739 mmHg 91%
    09:00 +10°C° 0 mm 4 mps 739 mmHg 81%
    10:00 +10°C° 0 mm 5 mps 740 mmHg 72%
    11:00 +12°C° 0 mm 5 mps 740 mmHg 62%
    12:00 +11°C° 0 mm 6 mps 740 mmHg 58%
    13:00 +13°C° 0 mm 6 mps 740 mmHg 54%
    14:00 +13°C° 0 mm 6 mps 741 mmHg 50%
    15:00 +12°C° 0 mm 5 mps 741 mmHg 55%
    16:00 +12°C° 0 mm 4 mps 741 mmHg 60%
    17:00 +11°C° 0 mm 3 mps 742 mmHg 65%
    18:00 +10°C° 0 mm 3 mps 742 mmHg 67%
    19:00 +8°C° 0 mm 4 mps 743 mmHg 69%
    20:00 +7°C° 0 mm 4 mps 743 mmHg 70%
    21:00 +8°C° 0 mm 3 mps 743 mmHg 73%
    22:00 +7°C° 0 mm 3 mps 744 mmHg 76%
    23:00 +5°C° 0 mm 3 mps 744 mmHg 79%

    28 September, Friday

    Time Temperature Precipitation Wind Pressure Humidity
    00:00 +5°C° 0 mm 3 mps 743 mmHg 81%
    01:00 +4°C° 0 mm 3 mps 743 mmHg 84%
    02:00 +4°C° 0 mm 3 mps 743 mmHg 87%
    03:00 +5°C° 0.1 mm 4 mps 741 mmHg 87%
    04:00 +7°C° 0.1 mm 5 mps 740 mmHg 87%
    05:00 +8°C° 0.1 mm 6 mps 739 mmHg 86%
    06:00 +9°C° 0.5 mm 7 mps 738 mmHg 86%
    07:00 +10°C° 0.5 mm 7 mps 736 mmHg 87%
    08:00 +12°C° 0.5 mm 8 mps 735 mmHg 87%
    09:00 +12°C° 1 mm 8 mps 735 mmHg 87%
    10:00 +12°C° 1 mm 8 mps 735 mmHg 88%
    11:00 +12°C° 1 mm 7 mps 735 mmHg 88%
    12:00 +12°C° 0.8 mm 8 mps 735 mmHg 83%
    13:00 +11°C° 0.8 mm 8 mps 736 mmHg 79%
    14:00 +11°C° 0.8 mm 8 mps 737 mmHg 74%
    15:00 +9°C° 0.1 mm 7 mps 738 mmHg 77%
    16:00 +7°C° 0.1 mm 5 mps 740 mmHg 79%
    17:00 +6°C° 0.1 mm 4 mps 741 mmHg 82%
    18:00 +5°C° 0 mm 3 mps 742 mmHg 85%
    19:00 +5°C° 0 mm 2 mps 743 mmHg 89%
    20:00 +4°C° 0 mm 2 mps 744 mmHg 92%
    21:00 +4°C° 0 mm 2 mps 744 mmHg 92%
    22:00 +4°C° 0 mm 2 mps 745 mmHg 92%
    23:00 +4°C° 0 mm 2 mps 745 mmHg 92%

    29 September, Saturday

    Time Temperature Precipitation Wind Pressure Humidity
    00:00 +4°C° 0 mm 2 mps 745 mmHg 93%
    01:00 +4°C° 0 mm 2 mps 746 mmHg 94%
    02:00 +4°C° 0 mm 2 mps 746 mmHg 95%
    03:00 +3°C° 0 mm 2 mps 746 mmHg 96%
    04:00 +3°C° 0 mm 2 mps 747 mmHg 97%
    05:00 +2°C° 0 mm 2 mps 747 mmHg 98%
    06:00 +3°C° 0 mm 2 mps 748 mmHg 94%
    07:00 +3°C° 0 mm 2 mps 748 mmHg 91%
    08:00 +4°C° 0 mm 2 mps 749 mmHg 88%
    09:00 +5°C° 0 mm 2 mps 749 mmHg 80%
    10:00 +6°C° 0 mm 2 mps 750 mmHg 71%
    11:00 +7°C° 0 mm 3 mps 750 mmHg 62%
    12:00 +8°C° 0.1 mm 3 mps 751 mmHg 59%
    13:00 +8°C° 0.1 mm 3 mps 751 mmHg 57%
    14:00 +8°C° 0.1 mm 3 mps 751 mmHg 54%
    15:00 +7°C° 0 mm 3 mps 751 mmHg 59%
    16:00 +7°C° 0 mm 2 mps 752 mmHg 65%
    17:00 +6°C° 0 mm 2 mps 752 mmHg 70%
    18:00 +5°C° 0 mm 1 mps 753 mmHg 74%
    19:00 +4°C° 0 mm 1 mps 753 mmHg 78%
    20:00 +3°C° 0 mm 1 mps 754 mmHg 82%
    21:00 +3°C° 0 mm 1 mps 754 mmHg 82%
    22:00 +2°C° 0 mm 1 mps 754 mmHg 83%
    23:00 +2°C° 0 mm 1 mps 754 mmHg 84%

    30 September, Sunday

    Time Temperature Precipitation Wind Pressure Humidity
    00:00 +2°C° 0 mm 1 mps 754 mmHg 84%
    01:00 +2°C° 0 mm 1 mps 754 mmHg 84%
    02:00 -1°C° 0 mm 2 mps 754 mmHg 84%
    03:00 +1°C° 0 mm 2 mps 754 mmHg 84%
    04:00 +1°C° 0 mm 2 mps 754 mmHg 83%
    05:00 +1°C° 0 mm 2 mps 754 mmHg 82%
    06:00 +1°C° 0 mm 3 mps 754 mmHg 78%
    07:00 +2°C° 0 mm 3 mps 754 mmHg 74%
    08:00 +3°C° 0 mm 4 mps 754 mmHg 70%
    09:00 +5°C° 0 mm 4 mps 754 mmHg 66%
    10:00 +7°C° 0 mm 4 mps 754 mmHg 62%
    11:00 +8°C° 0 mm 5 mps 754 mmHg 58%
    12:00 +9°C° 0 mm 5 mps 753 mmHg 57%
    13:00 +9°C° 0 mm 5 mps 753 mmHg 56%
    14:00 +10°C° 0 mm 5 mps 753 mmHg 54%
    15:00 +10°C° 0 mm 4 mps 752 mmHg 59%
    16:00 +8°C° 0 mm 4 mps 752 mmHg 64%
    17:00 +8°C° 0 mm 3 mps 752 mmHg 69%
    18:00 +8°C° 0 mm 3 mps 752 mmHg 70%
    19:00 +7°C° 0 mm 3 mps 752 mmHg 71%
    20:00 +7°C° 0 mm 3 mps 752 mmHg 72%
    21:00 +7°C° 0 mm 3 mps 752 mmHg 72%
    22:00 +7°C° 0 mm 3 mps 752 mmHg 72%
    23:00 +5°C° 0 mm 3 mps 752 mmHg 71%
    Show more